Hourly Weather Holovyn

Today, 11 April, Sunday

Time Temperature Precipitation Wind Pressure Humidity
00:00 +5°C° 0 mm 3 mps 750 mmHg 69%
01:00 +5°C° 0 mm 3 mps 750 mmHg 69%
02:00 +4°C° 0 mm 3 mps 751 mmHg 70%
03:00 +4°C° 0 mm 3 mps 751 mmHg 70%
04:00 +4°C° 0 mm 3 mps 751 mmHg 69%
05:00 +4°C° 0 mm 3 mps 751 mmHg 69%
06:00 +5°C° 0 mm 3 mps 751 mmHg 65%
07:00 +7°C° 0 mm 3 mps 752 mmHg 61%
08:00 +8°C° 0 mm 4 mps 752 mmHg 57%
09:00 +10°C° 0 mm 4 mps 752 mmHg 52%
10:00 +12°C° 0 mm 5 mps 752 mmHg 46%
11:00 +14°C° 0 mm 6 mps 752 mmHg 41%
12:00 +14°C° 0 mm 6 mps 752 mmHg 39%
13:00 +15°C° 0 mm 6 mps 752 mmHg 37%
14:00 +15°C° 0 mm 6 mps 752 mmHg 35%
15:00 +15°C° 0 mm 5 mps 751 mmHg 37%
16:00 +15°C° 0 mm 5 mps 751 mmHg 39%
17:00 +15°C° 0 mm 5 mps 751 mmHg 41%
18:00 +13°C° 0 mm 4 mps 751 mmHg 46%
19:00 +11°C° 0 mm 4 mps 752 mmHg 52%
20:00 +8°C° 0 mm 4 mps 752 mmHg 58%
21:00 +7°C° 0 mm 4 mps 752 mmHg 60%
22:00 +8°C° 0 mm 3 mps 752 mmHg 61%
23:00 +7°C° 0 mm 3 mps 752 mmHg 63%

Tomorrow, 12 April, Monday

Time Temperature Precipitation Wind Pressure Humidity
00:00 +5°C° 0 mm 3 mps 752 mmHg 63%
01:00 +5°C° 0 mm 3 mps 752 mmHg 64%
02:00 +5°C° 0 mm 4 mps 752 mmHg 64%
03:00 +4°C° 0 mm 4 mps 752 mmHg 65%
04:00 +4°C° 0 mm 3 mps 752 mmHg 66%
05:00 +4°C° 0 mm 3 mps 751 mmHg 67%
06:00 +5°C° 0 mm 4 mps 751 mmHg 64%
07:00 +6°C° 0 mm 4 mps 751 mmHg 61%
08:00 +7°C° 0 mm 4 mps 751 mmHg 58%
09:00 +10°C° 0 mm 4 mps 751 mmHg 52%
10:00 +11°C° 0 mm 4 mps 751 mmHg 47%
11:00 +13°C° 0 mm 5 mps 751 mmHg 41%
12:00 +14°C° 0 mm 4 mps 750 mmHg 39%
13:00 +15°C° 0 mm 4 mps 750 mmHg 37%
14:00 +17°C° 0 mm 4 mps 749 mmHg 35%
15:00 +17°C° 0 mm 4 mps 749 mmHg 37%
16:00 +17°C° 0 mm 3 mps 749 mmHg 39%
17:00 +17°C° 0 mm 3 mps 748 mmHg 40%
18:00 +14°C° 0 mm 3 mps 749 mmHg 45%
19:00 +12°C° 0 mm 3 mps 749 mmHg 49%
20:00 +10°C° 0 mm 3 mps 749 mmHg 54%
21:00 +10°C° 0 mm 3 mps 749 mmHg 56%
22:00 +9°C° 0 mm 3 mps 749 mmHg 58%
23:00 +9°C° 0 mm 3 mps 749 mmHg 61%

Day after tomorrow, 13 April, Tuesday

Time Temperature Precipitation Wind Pressure Humidity
00:00 +8°C° 0 mm 2 mps 749 mmHg 62%
01:00 +8°C° 0 mm 2 mps 748 mmHg 64%
02:00 +8°C° 0 mm 2 mps 748 mmHg 66%
03:00 +7°C° 0 mm 2 mps 748 mmHg 66%
04:00 +8°C° 0 mm 1 mps 748 mmHg 66%
05:00 +8°C° 0 mm 1 mps 748 mmHg 66%
06:00 +9°C° 0 mm 1 mps 748 mmHg 63%
07:00 +11°C° 0 mm 1 mps 748 mmHg 60%
08:00 +12°C° 0 mm 1 mps 748 mmHg 56%
09:00 +13°C° 0 mm 1 mps 748 mmHg 52%
10:00 +15°C° 0 mm 1 mps 748 mmHg 48%
11:00 +16°C° 0 mm 2 mps 748 mmHg 44%
12:00 +17°C° 0 mm 2 mps 747 mmHg 43%
13:00 +18°C° 0 mm 2 mps 747 mmHg 41%
14:00 +19°C° 0 mm 2 mps 747 mmHg 39%
15:00 +18°C° 0 mm 3 mps 746 mmHg 42%
16:00 +18°C° 0 mm 3 mps 746 mmHg 46%
17:00 +17°C° 0 mm 3 mps 746 mmHg 49%
18:00 +16°C° 0 mm 3 mps 746 mmHg 58%
19:00 +13°C° 0 mm 3 mps 746 mmHg 68%
20:00 +12°C° 0 mm 2 mps 746 mmHg 78%
21:00 +12°C° 0.1 mm 2 mps 746 mmHg 82%
22:00 +10°C° 0.1 mm 2 mps 745 mmHg 85%
23:00 +10°C° 0.1 mm 2 mps 745 mmHg 89%

14 April, Wednesday

Time Temperature Precipitation Wind Pressure Humidity
00:00 +9°C° 0.5 mm 2 mps 745 mmHg 90%
01:00 +9°C° 0.5 mm 2 mps 744 mmHg 92%
02:00 +9°C° 0.5 mm 3 mps 744 mmHg 93%
03:00 +8°C° 0.7 mm 3 mps 744 mmHg 94%
04:00 +8°C° 0.7 mm 3 mps 744 mmHg 94%
05:00 +7°C° 0.7 mm 3 mps 743 mmHg 95%
06:00 +7°C° 0.6 mm 3 mps 744 mmHg 95%
07:00 +7°C° 0.6 mm 3 mps 744 mmHg 95%
08:00 +7°C° 0.6 mm 3 mps 744 mmHg 95%
09:00 +7°C° 0.4 mm 2 mps 744 mmHg 94%
10:00 +7°C° 0.4 mm 2 mps 744 mmHg 93%
11:00 +7°C° 0.4 mm 2 mps 744 mmHg 93%
12:00 +7°C° 0.2 mm 2 mps 744 mmHg 92%
13:00 +7°C° 0.2 mm 2 mps 744 mmHg 92%
14:00 +8°C° 0.2 mm 1 mps 743 mmHg 91%
15:00 +7°C° 0.2 mm 2 mps 743 mmHg 92%
16:00 +7°C° 0.2 mm 2 mps 743 mmHg 92%
17:00 +7°C° 0.2 mm 2 mps 743 mmHg 93%
18:00 +7°C° 0.2 mm 2 mps 743 mmHg 94%
19:00 +8°C° 0.2 mm 1 mps 744 mmHg 94%
20:00 +8°C° 0.2 mm 1 mps 744 mmHg 95%
21:00 +8°C° 0.1 mm 1 mps 744 mmHg 95%
22:00 +8°C° 0.1 mm 1 mps 744 mmHg 95%
23:00 +8°C° 0.1 mm 1 mps 744 mmHg 95%

15 April, Thursday

Time Temperature Precipitation Wind Pressure Humidity
00:00 +8°C° 0 mm 1 mps 744 mmHg 95%
01:00 +8°C° 0 mm 1 mps 744 mmHg 95%
02:00 +8°C° 0 mm 1 mps 744 mmHg 96%
03:00 +8°C° 0 mm 1 mps 744 mmHg 95%
04:00 +8°C° 0 mm 1 mps 744 mmHg 95%
05:00 +8°C° 0 mm 1 mps 744 mmHg 95%
06:00 +8°C° 0 mm 1 mps 744 mmHg 94%
07:00 +8°C° 0 mm 1 mps 744 mmHg 92%
08:00 +9°C° 0 mm 1 mps 745 mmHg 91%
09:00 +10°C° 0.1 mm 1 mps 745 mmHg 85%
10:00 +11°C° 0.1 mm 1 mps 745 mmHg 80%
11:00 +12°C° 0.1 mm 2 mps 745 mmHg 74%
12:00 +12°C° 0.1 mm 2 mps 745 mmHg 71%
13:00 +13°C° 0.1 mm 2 mps 745 mmHg 67%
14:00 +12°C° 0.1 mm 3 mps 745 mmHg 63%
15:00 +13°C° 0.1 mm 2 mps 745 mmHg 67%
16:00 +12°C° 0.1 mm 2 mps 745 mmHg 72%
17:00 +12°C° 0.1 mm 2 mps 745 mmHg 77%
18:00 +10°C° 0.1 mm 2 mps 745 mmHg 80%
19:00 +9°C° 0.1 mm 2 mps 745 mmHg 84%
20:00 +9°C° 0.1 mm 2 mps 745 mmHg 88%
21:00 +8°C° 0 mm 3 mps 745 mmHg 89%
22:00 +7°C° 0 mm 3 mps 745 mmHg 91%
23:00 +6°C° 0 mm 4 mps 745 mmHg 92%

16 April, Friday

Time Temperature Precipitation Wind Pressure Humidity
00:00 +5°C° 0 mm 4 mps 745 mmHg 92%
01:00 +5°C° 0 mm 4 mps 745 mmHg 92%
02:00 +4°C° 0 mm 4 mps 745 mmHg 91%
03:00 +4°C° 0 mm 4 mps 745 mmHg 92%
04:00 +4°C° 0 mm 4 mps 745 mmHg 92%
05:00 +4°C° 0 mm 4 mps 745 mmHg 93%
06:00 +4°C° 0 mm 4 mps 746 mmHg 91%
07:00 +5°C° 0 mm 5 mps 746 mmHg 89%
08:00 +5°C° 0 mm 5 mps 746 mmHg 87%
09:00 +6°C° 0 mm 5 mps 746 mmHg 84%
10:00 +8°C° 0 mm 6 mps 746 mmHg 81%
11:00 +9°C° 0 mm 6 mps 746 mmHg 78%
12:00 +9°C° 0.1 mm 6 mps 746 mmHg 82%
13:00 +8°C° 0.1 mm 6 mps 746 mmHg 86%
14:00 +8°C° 0.1 mm 6 mps 747 mmHg 90%
15:00 +8°C° 0 mm 6 mps 747 mmHg 87%
16:00 +9°C° 0 mm 6 mps 747 mmHg 85%
17:00 +9°C° 0 mm 6 mps 747 mmHg 82%
18:00 +9°C° 0.1 mm 6 mps 747 mmHg 85%
19:00 +8°C° 0.1 mm 6 mps 748 mmHg 88%
20:00 +8°C° 0.1 mm 6 mps 748 mmHg 90%
21:00 +8°C° 0.1 mm 6 mps 749 mmHg 90%
22:00 +7°C° 0.1 mm 6 mps 749 mmHg 90%
23:00 +7°C° 0.1 mm 6 mps 749 mmHg 90%
Show more